Falconara, Italy

6:05 AM CEST on August 25, 2016 (GMT +0200)
Falconara Mil

Weather History for LIPY - November, 2012

Change the Weather History Date:

Wednesday, November 14, 2012

  Actual Average Record
Temperature  
Mean Temperature 56 °F -  
Max Temperature 60 °F 52 °F 75 °F (1996)
Min Temperature 51 °F 41 °F 35 °F (2011)
Degree Days  
Heating Degree Days 10    
Growing Degree Days 6 (Base 50)    
Moisture  
Dew Point 52 °F    
Average Humidity 86    
Maximum Humidity 100    
Minimum Humidity 63    
Precipitation  
Precipitation 0.00 in 0.10 in - ()
Sea Level Pressure  
Sea Level Pressure 30.26 in    
Wind  
Wind Speed 4 mph ()    
Max Wind Speed 10 mph    
Max Gust Speed -    
Visibility 6.2 miles    
Events      
Averages and records for this station are not official NWS values.
T = Trace of Precipitation, MM = Missing Value Source: Averaged Metar Reports

Daily Weather History Graph

Daily Weather History Graph

Search for Another Location

Airport or City:

Trip Planner

Search our weather history database for the weather conditions in past years. The results will help you decide how hot, cold, wet, or windy it might be!

Date:

Astronomy

Nov. 14, 2012 Rise Set
Actual Time 6:59 AM CET 4:42 PM CET
Civil Twilight 6:28 AM CET 5:12 PM CET
Nautical Twilight 5:53 AM CET 5:47 PM CET
Astronomical Twilight 5:20 AM CET 6:21 PM CET
Moon 7:30 AM CET (11/14) 5:12 PM CET (11/14)
Length of Visible Light 10h 44m
Length of Day
9h 42m
New Moon, 0% of the Moon is Illuminated
Nov 14
New Moon
Nov 20
First Quarter
Nov 28
Full
Dec 6
Last Quarter
Dec 13
New

Hourly Weather History & Observations

Time (CET) Temp. Dew Point Humidity Pressure Visibility Wind Dir Wind Speed Gust Speed Precip Events Conditions
12:50 AM 55.4 °F 53.6 °F 94% 30.30 in 6.2 mi Variable 2.3 mph - N/A   Mostly Cloudy
1:50 AM 55.4 °F 53.6 °F 94% 30.30 in 6.2 mi South 3.5 mph - N/A   Mostly Cloudy
2:50 AM 55.4 °F 53.6 °F 94% 30.30 in 6.2 mi South 3.5 mph - N/A   Mostly Cloudy
3:50 AM 53.6 °F 51.8 °F 94% 30.30 in 6.2 mi South 3.5 mph - N/A   Mostly Cloudy
4:50 AM 53.6 °F 51.8 °F 94% 30.30 in 6.2 mi South 3.5 mph - N/A   Scattered Clouds
5:50 AM 55.4 °F 51.8 °F 88% 30.27 in 6.2 mi South 4.6 mph - N/A   Mostly Cloudy
6:50 AM 53.6 °F 50.0 °F 88% 30.27 in 6.2 mi SW 5.8 mph - N/A   Partly Cloudy
7:50 AM 51.8 °F 51.8 °F 100% 30.30 in 6.2 mi SSE 3.5 mph - N/A   Partly Cloudy
8:50 AM 55.4 °F 53.6 °F 94% 30.30 in 6.2 mi South 4.6 mph - N/A   Scattered Clouds
9:50 AM 60.8 °F 55.4 °F 82% 30.27 in 6.2 mi NNW 5.8 mph - N/A   Scattered Clouds
10:50 AM 60.8 °F 53.6 °F 77% 30.27 in 6.2 mi NNW 6.9 mph - N/A   Mostly Cloudy
11:50 AM 60.8 °F 53.6 °F 77% 30.27 in 6.2 mi NNW 6.9 mph - N/A   Mostly Cloudy
12:50 PM 60.8 °F 55.4 °F 82% 30.24 in 6.2 mi North 3.5 mph - N/A   Scattered Clouds
1:50 PM 60.8 °F 53.6 °F 77% 30.24 in 6.2 mi NNE 8.1 mph - N/A   Scattered Clouds
2:50 PM 60.8 °F 50.0 °F 68% 30.24 in 6.2 mi NNE 9.2 mph - N/A   Scattered Clouds
3:50 PM 60.8 °F 48.2 °F 63% 30.24 in 6.2 mi NNE 10.4 mph - N/A   Scattered Clouds
4:50 PM 57.2 °F 46.4 °F 67% 30.24 in 6.2 mi NNE 6.9 mph - N/A   Scattered Clouds
5:50 PM 55.4 °F 48.2 °F 77% 30.24 in 6.2 mi Variable 2.3 mph - N/A   Scattered Clouds
6:50 PM 53.6 °F 51.8 °F 94% 30.24 in 6.2 mi South 4.6 mph - N/A   Scattered Clouds
7:50 PM 53.6 °F 51.8 °F 94% 30.24 in 6.2 mi South 3.5 mph - N/A   Scattered Clouds
8:50 PM 51.8 °F 50.0 °F 94% 30.24 in 6.2 mi SSE 4.6 mph - N/A   Scattered Clouds
9:50 PM 51.8 °F 50.0 °F 94% 30.24 in 6.2 mi SSE 4.6 mph - N/A   Scattered Clouds
10:50 PM 53.6 °F 50.0 °F 88% 30.24 in 6.2 mi SSE 3.5 mph - N/A   Scattered Clouds